Weather Roundup
Issued by NWS Springfield, MO

Home | Current Version | Previous Version | Text Only | Print | Product List | Glossary On
Versions: 1 2 3 4 5 6 7 8 9 10 11 12 13 14 15 16 17 18 19 20 21 22 23 24 25 26 27 28 29 30 31 32 33 34 35 36 37 38 39 40 41 42 43 44 45 46 47 48 49 50
000
NZUS99 KSGF 290357
HRRSGF

HOURLY WEATHER
NATIONAL WEATHER SERVICE SPRINGFIELD MO
1100 PM CDT WED SEP 28 2016

......SGF CWA......

CITY           SKY/WX    TMP DP  RH WIND       PRES   REMARKS
SPRINGFIELD    CLEAR     56  46  69 N12       30.20R
JOPLIN         CLEAR     56  48  74 N8        30.23R
WEST PLAINS    CLEAR     54  45  71 N5        30.18R
ROLLA          CLEAR     51  46  83 NW6       30.18R

......SURROUNDING SGF CWA......

CITY           SKY/WX    TMP DP  RH WIND       PRES   REMARKS
CHANUTE        CLEAR     57  49  74 N7        30.25R
PARSONS        CLEAR     57  49  74 N5        30.25R
COFFEYVILLE    CLEAR     58  49  72 N12       30.23R
EMPORIA        CLEAR     53  48  83 NE6       30.28R
HARRISON AR    CLEAR     55  47  74 N5        30.19R

......KANSAS AND MISSOURI......

CITY           SKY/WX    TMP DP  RH WIND       PRES   REMARKS
KANSAS CTY INT CLEAR     52  46  80 NW5       30.28R
SEDALIA        CLEAR     55  48  77 N8        30.24R
ST JOSEPH      CLEAR     52  48  86 N6        30.28R
ST LOUIS       PTCLDY    57  48  72 NW8       30.13S
WICHITA        CLEAR     57  48  72 NE9       30.27R
TOPEKA         CLEAR     53  48  83 N5        30.29R
OLATHE         CLEAR     56  45  66 N8        30.27R

......TENNESSEE......

CITY           SKY/WX    TMP DP  RH WIND       PRES   REMARKS
MEMPHIS        NOT AVBL
NASHVILLE      CLEAR     59  48  67 NW10G21   30.05R

......ARKANSAS.......

CITY           SKY/WX    TMP DP  RH WIND       PRES   REMARKS
FAYETTEVILLE   CLEAR     58  49  72 N5        30.18R
FT SMITH       CLEAR     66  47  50 NE8       30.14R
LITTLE ROCK    CLEAR     70  46  42 N13       30.10R

......OKLAHOMA.......

CITY           SKY/WX    TMP DP  RH WIND       PRES   REMARKS
TULSA          CLEAR     63  49  60 N14       30.19R
PONCA CITY     CLEAR     56  48  74 N3        30.24R
MCALESTER      MOCLDY    69  48  47 N10       30.16R
OKLAHOMA CITY  PTCLDY    67  45  45 NE15      30.21R

......IOWA............

CITY           SKY/WX    TMP DP  RH WIND       PRES   REMARKS
DES MOINES     NOT AVBL
QUAD CITIES    CLEAR     56  49  77 N10       30.19R

......ILLINOIS........

CITY           SKY/WX    TMP DP  RH WIND       PRES   REMARKS
QUINCY         NOT AVBL
CHICAGO        LGT RAIN  58  55  90 N14       30.07S



USA.gov is the U.S. government's official web portal to all federal, state and local government web resources and services.